User: anonymous   Login
Location: Stillwell
(40.4602°N, 82.0928°W)
Time: 06:27:49
(UTC-04:00)
Language:

Cosmos 2333 Rocket - Orbit

View from above orbital plane
View from above orbital plane
View from above satellite
View from above satellite

Ground track
Ground track

The orbit data is extracted from the following two-line orbital elements,

1 24298U 96051B   16125.52315472  .00000037  00000-0  46313-4 0  9991
2 24298  70.8353 203.5014 0012551  71.6087 288.6397 14.12396258 14112
Epoch (UTC): 04 May 2016 12:33:20
Eccentricity: 0.0012551
inclination: 70.8353°
perigee height: 842 km
apogee height: 860 km
right ascension of ascending node: 203.5014°
argument of perigee: 71.6087°
revolutions per day: 14.12396258
mean anomaly at epoch: 288.6397°
orbit number at epoch: 1411

The dashed part of the orbit path shows where the satellite is in the earth's shadow,  

DLR